Temperature
16 16 16 16 16 16 16 16 16 16 16 16 16 16 16 16 16 16 16 16 16 16 16 16 16 16 16 16 16 16 16 16 16 16 16 16 16 16 16 16 15 15 15
16 16 16 16 16 16 16 16 16 16 16 16 16 16 16 16 16 16 16 16 16 16 16 16 16 16 16 16 16 16 16 16 16 16 16 16 16 16 16 15 15 15 15
16 16 16 16 16 16 16 16 16 16 16 16 16 16 16 16 16 16 16 16 16 16 16 16 16 16 16 16 16 16 16 16 16 16 15 15 15 15 15 15 15 15 15
15 15 15 16 15 15 15 15 16 16 16 16 16 16 16 16 16 16 16 16 16 16 16 16 16 16 16 16 16 16 16 16 15 15 14 14 15 15 15 15 15 15 15
15 15 15 15 15 15 15 15 15 15 16 16 16 16 16 16 16 16 15 15 16 16 15 16 16 16 16 16 15 16 16 15 15 15 14 14 14 15 15 15 15 15 15
14 15 15 15 15 15 15 15 15 15 15 15 15 15 15 16 16 16 15 15 15 15 15 15 15 15 15 15 15 15 15 15 15 14 14 14 14 15 15 15 15 15 15
14 14 15 15 15 15 15 15 15 15 15 15 15 15 15 15 15 15 15 15 15 15 15 15 15 15 15 15 15 15 15 15 14 14 14 14 14 15 15 15 15 15 14
14 14 14 14 15 15 15 15 15 15 15 15 15 15 15 15 15 15 15 15 15 15 15 15 15 15 15 15 15 15 15 15 14 14 14 14 14 14 14 15 14 14 14
14 14 14 14 14 14 14 15 15 15 15 15 15 15 15 15 15 15 15 15 15 15 15 15 15 15 15 15 15 15 15 15 14 14 14 14 14 14 14 14 14 14 14
13 13 13 13 14 14 14 14 14 14 15 15 15 15 15 15 15 15 15 15 15 15 15 15 15 15 15 15 15 15 14 14 13 13 13 13 14 14 14 14 14 14 14
13 13 13 13 13 13 14 14 14 14 14 14 14 14 14 14 14 14 14 14 14 15 15 15 15 14 14 14 14 14 14 13 13 13 13 13 14 13 13 13 14 14 14
13 13 13 13 13 13 13 13 14 14 14 14 14 14 14 14 14 14 14 14 14 14 14 14 14 14 14 14 14 14 13 13 13 13 13 14 13 13 13 13 13 13 13
12 12 12 12 13 13 13 13 13 13 13 14 14 14 14 14 14 14 14 14 14 14 14 14 14 14 14 14 14 14 13 13 13 13 13 13 13 13 13 13 13 13 13
12 12 12 12 12 12 13 13 13 13 13 13 14 14 14 14 14 14 14 14 14 14 14 14 14 13 14 14 13 13 13 13 13 13 13 13 13 13 13 13 13 13 13
11 12 12 12 12 12 12 13 13 13 13 13 13 13 13 13 13 13 13 13 13 13 13 14 13 13 13 13 13 13 13 13 13 13 13 13 13 13 13 13 12 12 12
11 11 12 12 12 12 12 12 12 12 13 13 13 13 13 13 13 13 13 13 13 13 13 13 13 13 13 13 13 13 13 13 13 13 13 13 13 13 13 12 12 12 12
11 11 11 12 12 12 12 12 12 12 12 12 13 13 13 13 13 13 13 13 13 13 13 13 13 13 13 13 13 13 13 13 12 12 12 12 12 12 12 12 12 12 12
11 11 11 11 11 11 12 12 12 12 12 12 12 12 12 13 13 13 13 13 13 13 13 13 13 12 12 12 12 12 12 12 12 12 12 12 12 12 12 12 12 12 12
10 11 11 11 11 11 11 11 12 11 12 12 12 12 12 12 12 12 12 12 12 12 12 12 12 12 12 12 12 12 12 12 12 12 12 12 12 12 12 12 12 12 12
10 10 10 11 11 11 11 11 11 11 11 11 11 12 12 12 12 12 12 12 12 12 12 12 12 12 12 12 12 12 12 12 12 12 12 11 12 12 11 11 11 11 11
10 10 10 11 11 11 11 11 11 11 11 11 11 11 11 11 11 12 12 12 12 12 12 11 12 11 11 11 11 11 11 11 11 11 11 11 11 11 11 11 11 11 11
9 10 10 10 10 11 11 11 11 11 11 11 11 11 11 11 11 11 11 11 11 11 11 11 11 11 11 11 11 10 10 10 11 11 11 11 11 11 11 11 11 10 10
9 9 9 9 10 10 10 10 10 10 10 10 10 11 11 11 11 11 11 11 11 11 11 11 11 11 11 11 11 10 10 11 10 10 10 10 10 10 10 10 10 10 10
9 9 9 9 9 10 10 10 10 10 10 10 10 10 10 10 10 10 11 10 10 10 10 10 10 10 10 10 10 10 10 10 10 9 9 10 10 10 10 10 10 10 10
9 9 9 9 9 9 9 10 10 10 10 10 10 10 10 10 10 10 10 10 10 10 10 10 10 10 10 10 10 10 10 10 10 9 9 9 9 9 9 9 9 9 9
8 8 8 9 9 9 9 9 9 9 9 9 9 9 9 10 10 10 10 10 10 10 10 10 9 9 9 9 9 9 9 9 9 9 9 8 8 9 9 9 9 9 9
Wind_Speed
5 5 6 5 7 9 9 9 9 9 9 9 10 10 11 10 10 10 10 10 10 11 11 11 11 11 11 11 11 11 10 11 11 11 11 11 11 11 10 9 8 10 11
6 7 8 6 7 9 10 9 9 9 9 9 10 10 10 10 11 10 10 10 10 11 11 11 10 11 11 11 11 11 11 10 10 10 10 10 10 9 9 8 8 9 9
7 7 8 7 7 8 9 10 9 9 9 9 9 10 10 10 10 10 10 10 10 10 11 11 10 11 11 11 10 10 11 10 10 8 7 8 9 9 8 8 8 9 8
7 7 7 7 7 7 8 9 9 9 9 9 9 9 9 9 9 10 10 10 10 10 10 10 10 10 10 10 10 10 10 9 8 5 5 7 7 8 7 7 7 8 8
7 7 7 7 7 7 7 8 8 9 9 9 9 8 8 9 9 10 10 9 9 10 10 10 10 10 9 9 9 9 9 8 6 3 6 6 6 7 7 6 7 7 7
6 6 7 7 7 7 7 7 8 8 8 9 9 9 9 8 9 9 9 9 9 9 9 9 9 9 9 9 9 9 8 7 5 5 5 5 6 7 6 5 5 5 5
6 6 7 7 7 7 7 7 7 8 8 8 9 9 9 9 8 8 9 9 9 9 9 9 9 9 9 9 9 8 8 5 4 5 4 4 5 5 5 4 4 4 4
6 6 7 8 7 7 7 7 7 8 8 8 8 9 9 9 9 8 9 9 9 8 8 8 8 8 8 8 9 8 7 4 4 4 4 4 5 4 4 4 4 4 3
6 6 7 8 8 8 7 7 7 7 8 8 8 8 9 8 8 9 9 9 9 8 8 8 8 8 8 8 8 8 7 3 3 3 3 4 5 3 4 3 3 3 3
5 5 6 7 7 7 8 7 6 6 7 8 8 8 8 9 9 9 9 9 8 8 8 8 8 8 8 8 8 8 7 5 3 3 3 4 4 3 3 3 2 2 2
5 5 5 6 7 7 7 7 7 6 7 8 8 8 8 8 8 8 8 8 8 7 8 8 8 8 8 8 8 8 7 4 4 3 2 4 3 2 2 2 1 1 1
6 6 6 7 7 7 6 7 7 7 7 8 8 8 8 7 7 7 8 9 8 7 7 8 8 8 7 7 8 8 5 5 4 3 3 3 2 2 1 1 1 1 2
7 5 5 6 7 6 5 6 6 6 6 7 8 8 7 7 6 6 7 8 8 8 7 7 8 6 6 5 6 6 5 4 3 3 3 3 2 2 1 2 2 2 2
6 6 5 5 6 7 6 5 6 5 5 5 7 8 7 5 5 6 5 6 6 5 5 5 5 6 6 6 7 6 6 4 3 3 3 3 2 2 2 2 2 1 0
6 7 6 5 7 7 6 5 5 5 6 6 7 8 8 6 6 6 5 5 5 5 5 4 4 5 5 5 6 6 6 5 4 4 4 4 2 2 2 1 1 1 0
5 6 6 7 6 7 7 6 5 6 6 6 6 8 8 6 6 6 5 4 4 5 4 4 4 4 4 4 5 5 5 5 5 4 4 5 4 2 2 1 1 1 1
5 5 6 6 6 8 8 7 5 6 6 6 6 8 8 7 6 6 5 4 4 5 5 4 4 4 3 4 5 5 4 4 4 5 4 4 4 4 3 2 1 1 1
4 5 5 5 6 6 7 6 5 6 6 6 6 6 8 8 7 6 5 5 5 4 4 3 3 4 4 4 4 4 4 4 5 5 4 4 3 3 3 2 1 0 1
4 4 4 5 7 6 6 5 5 5 5 5 5 5 6 7 8 6 5 5 5 4 3 3 3 3 4 4 3 3 3 4 4 4 4 4 3 3 2 3 2 1 1
3 4 4 4 5 5 5 5 4 5 4 5 4 4 6 6 7 6 5 5 5 4 3 3 4 3 3 3 3 3 2 3 3 3 4 3 3 3 2 1 1 1 0
2 3 3 3 4 4 5 5 5 5 4 4 4 5 6 6 6 5 4 5 4 4 4 4 3 3 2 2 3 2 2 2 3 3 3 3 2 2 2 1 1 1 1
2 2 3 3 4 5 5 5 4 4 3 3 4 5 5 5 6 5 5 4 5 4 4 4 3 3 2 2 3 3 3 3 3 2 3 2 2 2 2 2 2 2 2
3 3 3 3 4 4 5 4 4 4 3 2 3 3 4 5 5 5 5 4 5 5 4 5 4 4 3 3 2 2 2 3 2 2 3 3 2 2 2 1 2 2 1
3 2 3 3 3 4 6 6 7 5 4 3 3 3 4 4 5 5 5 5 5 4 5 5 4 4 4 3 3 1 1 1 2 2 3 3 2 2 2 1 1 1 1
2 3 3 3 3 4 5 6 6 5 4 3 3 3 3 3 3 4 4 5 4 4 5 5 5 4 4 4 3 3 2 2 2 2 3 2 2 2 2 2 2 1 2
3 3 3 3 3 3 4 5 5 5 5 4 4 3 2 2 2 3 3 3 4 4 5 5 5 6 5 4 4 4 3 3 3 3 3 3 3 2 2 2 1 1 1
Wind_Direction
160 162 156 163 156 155 148 143 140 138 138 139 141 143 142 140 141 138 136 133 131 129 126 122 119 116 113 112 110 109 106 101 101 100 96 94 95 95 93 93 96 92 89
154 155 148 156 154 156 154 147 142 139 138 140 142 145 146 146 146 145 141 137 133 132 129 125 123 118 115 112 111 109 106 104 104 104 107 106 97 95 93 82 71 86 92
147 148 151 151 153 155 155 150 146 144 141 140 141 145 148 149 150 149 146 140 135 133 133 130 127 123 119 116 115 113 109 106 107 116 136 115 105 98 97 91 88 93 95
151 150 151 144 154 155 154 153 151 151 149 147 145 146 148 151 150 150 149 144 139 136 135 131 128 127 124 122 121 119 114 109 111 144 127 107 107 100 98 98 97 94 95
158 157 149 147 149 151 150 155 152 153 156 155 151 148 147 150 152 151 148 144 140 135 135 133 131 130 128 127 125 121 118 114 126 147 106 107 106 101 96 97 97 95 94
167 165 156 159 155 151 151 157 162 159 158 160 158 154 151 149 152 151 148 144 141 137 135 136 136 134 132 131 128 124 120 125 157 119 111 111 106 102 97 95 100 99 101
173 171 166 163 161 159 157 159 164 166 161 163 164 160 157 154 152 153 149 147 144 141 138 140 141 139 138 137 134 130 128 140 141 123 118 110 99 102 99 91 93 93 106
180 177 171 167 166 164 165 163 165 172 168 164 165 164 161 157 156 151 149 148 148 148 146 144 147 143 142 141 138 134 133 158 143 129 123 113 98 107 103 93 88 86 99
190 184 176 177 175 171 170 168 168 174 177 168 161 163 161 158 156 155 151 151 152 154 155 151 150 151 149 147 143 139 142 169 160 130 127 114 109 115 112 106 94 83 77
195 191 182 181 185 183 178 173 170 173 177 173 165 162 160 158 159 158 159 152 152 156 160 157 152 155 154 151 147 145 152 184 165 149 143 113 116 124 117 115 112 94 86
204 201 193 188 188 191 185 176 174 170 174 176 169 162 168 173 171 169 160 150 151 155 162 161 159 158 159 156 152 154 169 184 169 163 141 104 129 139 133 129 124 107 96
212 211 202 198 192 192 188 183 185 182 183 187 182 177 180 178 173 169 157 152 153 153 159 161 162 161 173 170 163 171 185 189 180 169 131 118 159 169 156 157 143 115 98
216 211 210 203 196 193 190 188 189 186 186 189 186 185 181 178 173 171 166 163 163 166 169 165 172 178 180 174 174 182 185 187 186 174 144 136 184 194 160 136 113 85 74
222 215 208 203 200 197 195 192 193 189 186 186 185 188 182 175 175 171 170 171 171 175 175 178 181 182 186 184 185 184 183 189 191 186 148 142 171 175 159 133 126 112 59
228 220 209 205 204 199 194 194 195 195 190 188 186 187 186 181 179 175 174 173 173 176 178 178 181 182 186 187 189 191 189 191 193 190 161 148 162 165 162 164 152 158 174
227 224 210 200 205 202 197 195 195 195 188 187 186 186 186 185 181 177 177 177 175 178 179 181 182 185 188 190 190 191 191 191 190 187 175 159 159 164 178 208 220 204 246
229 222 209 198 199 201 199 197 193 191 188 183 184 187 184 186 185 178 178 179 176 179 178 179 181 184 187 191 190 191 190 191 185 184 183 182 174 169 176 203 229 244 282
231 217 206 194 195 195 195 192 186 185 186 180 177 180 182 184 186 180 181 180 174 173 173 175 185 188 190 193 189 186 188 186 191 187 182 180 181 184 170 162 187 270 327
227 214 198 193 191 189 188 183 181 180 180 173 171 173 178 183 186 184 182 177 173 170 172 177 183 196 198 191 187 186 187 187 190 189 185 180 179 180 174 135 129 108 325
216 205 193 192 185 177 176 167 170 172 174 168 171 170 173 176 181 181 174 172 172 172 174 181 179 184 197 189 176 181 185 188 191 196 196 185 183 185 185 187 194 145 71
194 182 184 185 173 166 171 169 173 178 176 172 168 171 173 170 171 174 170 169 175 176 177 182 181 178 176 185 182 177 180 189 194 198 202 199 191 192 196 212 244 271 260
186 182 174 184 174 171 177 177 180 170 170 173 167 168 172 171 170 171 171 175 178 174 174 178 183 184 177 182 195 184 193 193 198 201 201 209 216 210 216 230 246 263 277
183 187 181 180 173 171 170 163 149 139 139 156 168 171 176 173 170 165 173 180 182 180 182 183 185 191 187 180 194 205 197 212 195 187 199 206 216 231 232 238 248 253 270
186 181 177 171 165 167 166 164 164 170 177 188 184 181 177 176 176 174 173 178 187 185 190 191 188 197 192 185 181 221 258 180 196 197 193 200 214 236 245 256 252 243 251
159 156 156 152 148 151 160 166 167 172 174 162 160 165 171 172 177 179 180 183 190 193 195 197 195 195 201 200 192 185 196 208 214 218 221 216 224 229 240 262 251 244 247
146 144 143 145 141 142 152 162 166 169 162 155 160 166 173 175 179 180 178 186 193 198 196 199 202 201 203 206 205 201 197 204 209 214 228 233 244 249 250 250 251 257 259
Height
1520 1521 1522 1523 1525 1526 1527 1528 1529 1530 1531 1532 1533 1534 1535 1536 1537 1538 1538 1539 1540 1541 1542 1542 1543 1543 1544 1544 1544 1544 1544 1545 1545 1545 1545 1545 1545 1545 1546 1546 1546 1546 1545
1519 1521 1521 1523 1524 1526 1527 1528 1529 1530 1531 1532 1533 1534 1535 1536 1537 1538 1539 1540 1540 1541 1542 1543 1543 1544 1544 1544 1545 1545 1545 1545 1546 1546 1546 1546 1547 1547 1547 1547 1547 1547 1547
1519 1520 1521 1522 1524 1525 1526 1527 1529 1530 1531 1532 1533 1534 1535 1536 1537 1538 1539 1540 1540 1541 1542 1543 1543 1544 1544 1545 1545 1545 1546 1546 1547 1547 1548 1548 1548 1548 1548 1548 1548 1548 1548
1518 1520 1521 1522 1523 1524 1526 1527 1528 1529 1530 1531 1532 1534 1535 1536 1537 1538 1539 1540 1540 1541 1542 1543 1543 1544 1544 1545 1545 1546 1546 1547 1547 1548 1550 1550 1549 1549 1549 1549 1549 1549 1549
1518 1519 1520 1521 1522 1523 1525 1526 1527 1528 1530 1531 1532 1533 1534 1535 1536 1537 1538 1539 1540 1541 1542 1542 1543 1544 1544 1545 1545 1546 1546 1547 1548 1549 1550 1550 1550 1550 1550 1550 1550 1550 1550
1517 1518 1519 1520 1521 1522 1524 1525 1526 1527 1528 1530 1531 1532 1533 1535 1536 1537 1538 1539 1540 1541 1542 1542 1543 1544 1544 1545 1545 1546 1547 1547 1548 1550 1550 1550 1551 1550 1550 1550 1550 1550 1550
1516 1517 1518 1519 1520 1521 1522 1523 1525 1526 1527 1529 1530 1531 1533 1534 1535 1536 1537 1539 1540 1541 1541 1542 1543 1543 1544 1545 1545 1546 1547 1547 1549 1549 1550 1550 1550 1550 1550 1551 1550 1550 1550
1515 1515 1517 1518 1519 1520 1521 1522 1523 1525 1526 1528 1529 1530 1532 1533 1534 1535 1537 1538 1539 1540 1541 1542 1542 1543 1544 1544 1545 1546 1547 1547 1549 1549 1550 1550 1550 1550 1550 1550 1550 1550 1550
1513 1514 1515 1516 1517 1518 1520 1521 1522 1523 1525 1526 1528 1529 1530 1532 1533 1534 1536 1537 1538 1539 1540 1541 1542 1542 1543 1544 1545 1546 1547 1547 1549 1549 1549 1550 1549 1550 1550 1550 1550 1550 1550
1511 1512 1512 1514 1515 1516 1518 1519 1520 1522 1523 1525 1526 1528 1529 1530 1532 1533 1535 1536 1537 1538 1539 1540 1541 1542 1543 1544 1545 1545 1546 1547 1549 1549 1549 1549 1549 1549 1549 1549 1550 1550 1549
1509 1509 1510 1511 1512 1514 1515 1517 1518 1520 1521 1523 1524 1526 1528 1529 1530 1532 1533 1535 1536 1537 1538 1540 1541 1541 1542 1543 1544 1545 1546 1547 1548 1548 1548 1548 1548 1549 1549 1549 1549 1549 1548
1505 1506 1507 1508 1509 1511 1513 1514 1516 1518 1519 1521 1522 1524 1526 1527 1529 1530 1532 1533 1535 1536 1537 1538 1540 1540 1541 1542 1543 1544 1545 1546 1547 1547 1547 1547 1548 1548 1548 1548 1548 1548 1547
1502 1503 1503 1504 1506 1508 1510 1512 1514 1515 1517 1518 1520 1522 1524 1525 1527 1529 1530 1532 1534 1535 1536 1537 1538 1539 1540 1541 1542 1543 1544 1545 1546 1546 1546 1546 1547 1547 1547 1547 1547 1547 1546
1499 1500 1500 1501 1503 1505 1507 1509 1511 1512 1514 1516 1517 1519 1521 1523 1525 1527 1528 1530 1532 1533 1534 1535 1536 1537 1539 1539 1540 1541 1542 1543 1544 1545 1545 1545 1545 1546 1546 1546 1546 1545 1545
1496 1496 1497 1498 1500 1502 1504 1506 1508 1509 1511 1513 1515 1517 1519 1521 1523 1525 1527 1528 1530 1531 1532 1534 1535 1536 1537 1538 1539 1540 1541 1542 1542 1543 1543 1544 1544 1544 1544 1544 1544 1544 1544
1492 1493 1493 1495 1497 1499 1501 1503 1505 1506 1508 1510 1512 1514 1516 1519 1521 1523 1524 1526 1528 1529 1530 1532 1533 1534 1535 1536 1537 1538 1539 1540 1541 1541 1542 1542 1542 1543 1543 1543 1543 1543 1542
1489 1490 1490 1491 1493 1496 1498 1500 1502 1504 1506 1507 1510 1512 1514 1516 1519 1520 1522 1524 1526 1527 1528 1530 1531 1532 1533 1533 1534 1536 1537 1538 1539 1539 1540 1541 1541 1541 1541 1541 1541 1541 1541
1486 1486 1487 1489 1491 1492 1495 1497 1499 1501 1503 1505 1507 1509 1512 1514 1516 1518 1520 1522 1523 1525 1526 1527 1529 1530 1531 1531 1532 1533 1535 1536 1537 1537 1538 1539 1539 1540 1540 1540 1540 1539 1539
1483 1483 1484 1486 1488 1489 1492 1494 1497 1499 1501 1502 1504 1507 1509 1511 1514 1516 1518 1519 1521 1522 1524 1525 1526 1528 1529 1529 1530 1531 1532 1533 1534 1535 1536 1537 1537 1538 1538 1538 1538 1537 1537
1481 1481 1482 1484 1486 1487 1489 1492 1495 1496 1498 1500 1502 1504 1507 1509 1511 1513 1515 1517 1518 1520 1521 1523 1524 1525 1526 1527 1528 1529 1530 1531 1532 1533 1534 1535 1535 1535 1536 1536 1536 1535 1535
1477 1479 1480 1481 1482 1485 1487 1489 1492 1494 1496 1498 1500 1502 1504 1506 1508 1510 1512 1514 1516 1517 1518 1520 1521 1523 1524 1525 1526 1527 1528 1529 1530 1531 1532 1533 1533 1533 1533 1533 1533 1533 1533
1475 1476 1477 1478 1480 1482 1485 1487 1490 1492 1494 1496 1498 1500 1502 1504 1506 1508 1509 1511 1513 1515 1516 1517 1519 1520 1521 1522 1524 1525 1527 1529 1528 1528 1529 1530 1530 1531 1531 1531 1531 1531 1531
1472 1474 1475 1476 1478 1480 1483 1486 1488 1490 1492 1494 1496 1497 1500 1502 1504 1505 1507 1509 1510 1511 1513 1514 1516 1518 1518 1520 1521 1523 1524 1525 1526 1526 1526 1527 1528 1528 1528 1529 1528 1528 1528
1471 1472 1473 1475 1477 1478 1481 1483 1485 1487 1489 1492 1493 1495 1498 1500 1502 1503 1504 1506 1508 1509 1510 1512 1513 1515 1516 1517 1518 1520 1521 1521 1523 1524 1525 1525 1525 1526 1526 1526 1526 1525 1525
1470 1471 1472 1473 1475 1476 1479 1481 1483 1486 1488 1490 1492 1493 1495 1497 1499 1501 1502 1503 1505 1506 1508 1509 1511 1512 1513 1515 1515 1516 1517 1518 1519 1521 1521 1522 1522 1523 1523 1523 1523 1522 1522
1468 1470 1471 1472 1473 1475 1477 1479 1481 1484 1485 1487 1489 1491 1493 1494 1496 1497 1499 1500 1502 1503 1505 1506 1508 1509 1510 1512 1513 1513 1514 1515 1516 1517 1518 1518 1519 1519 1519 1519 1520 1519 1519